Retour au catalogue

SCOUT A DEB

ActifPO
NORAD 3591·DEBRIS·🇺🇸 United States

Lancé May 19, 1966 depuis Vandenberg Space Force Base

Loading…

Prochains Passages (prochaines 24 heures)

TLE

FraisSource: Space-Track

Époque: Sep 14, 2026, 07:26 UTC

1 03591U 66041E   26257.31033763  .00000326  00000-0  19369-3 0  9995
2 03591  90.2090  84.6354 0085312 209.2732 150.3656 14.04106072 79898

Suivez SCOUT A DEB en temps réel avec AllMySat

Download on the App Store